sat.trackr.live / text

‹ back to catalog

STARLINK-36853

NORAD 68097 · 2026-042AE

PAYLOAD ACTIVE UNKNOWN

§ Identity

Operator
Country
US
Launch date
2026-03-04
Launch site
AFETR
Launch vehicle
Mass (kg)
RCS (m²)

Purposes: comms

External: N2YO · Heavens-Above · Gunter

§ Orbital elements

Epoch: 2026-05-24T12:40:01.111296Z

Period
93.85 min
Inclination
53.1588°
Eccentricity
0.0000897
Mean motion
15.34394976 rev/d
Perigee alt
462.1 km
Apogee alt
463.3 km
Semi-major
6,840.9 km
B*
6.2631e-4
RAAN
185.9477°
Arg perigee
75.6338°
Mean anomaly
284.4764°
Rev number
1,391

§ Raw data

STARLINK-368531 68097U 26042AE  26144.52779064  .00020840  00000+0  62631-3 0  99952 68097  53.1588 185.9477 0000897  75.6338 284.4764 15.34394976 13919

JSON: /api/v1/satellites/68097 · /tle

For live sub-satellite position, see the globe view (requires WebGL).

§ Visibility from observer

Set your observer location to see the next 7 days of passes ≥ 10°. The values pass through the URL so the page stays shareable.

No JS? Fill the form by hand. The geolocation button needs JavaScript.